#timestamp,LO_Frequency,Hit,StdDev 
1583834415.4,286047000.8,N
1583834435.2,286046997.0,N
1583834455.1,286046996.6,N
1583834456.0,286046996.6,N
1583834475.8,286046999.0,N
1583834495.7,286047001.1,N
1583834515.5,286046998.3,N
1583834535.3,286047002.5,N
1583834555.2,286047001.6,N
1583834575.0,286047000.8,N
1583834575.9,286047000.8,N
1583834595.7,286046996.5,N
1583834615.6,286046995.9,N
1583834635.4,286046993.6,Y
1583834655.3,286046996.1,P
1583834675.1,286046994.9,P
1583834695.8,286046998.3,N
1583834715.7,286046998.5,N
1583834735.5,286046999.4,N
1583834755.4,286046999.1,N
1583834775.2,286046999.0,N
1583834795.0,286046998.4,N
1583834795.9,286046998.4,N
1583834815.8,286046999.3,N
1583834835.6,286046998.8,N
1583834855.4,286046999.6,N
1583834875.3,286046998.0,N
1583834895.1,286046997.5,N
1583834915.9,286046998.8,N
1583834935.7,286046998.5,N
1583834955.5,286046999.8,N
1583834975.4,286046998.8,N
1583834995.2,286046997.8,N
1583835015.1,286046997.4,N
1583835016.0,286046997.4,N
1583835035.8,286046999.3,N
1583835055.6,286046998.5,N
1583835075.5,286046998.9,N
1583835095.3,286047000.3,N
1583835115.2,286046998.2,N
1583835135.9,286047000.9,N
1583835155.7,286047002.5,N
1583835175.6,286047001.4,N
1583835195.4,286047000.5,N
1583835215.3,286047000.7,N
1583835235.1,286046999.9,N
1583835236.0,286046999.9,N
1583835255.8,286046999.7,N
1583835275.7,286047002.8,N
1583835295.5,286047001.0,N
1583835315.4,286047000.7,N
1583835335.2,286046998.6,N
1583835355.0,286046998.7,N
1583835355.9,286046998.7,N
1583835375.8,286046998.8,N
1583835395.6,286046998.9,N
1583835415.4,286046995.2,Y
1583835435.3,286046995.0,P
1583835455.1,286046997.9,N
1583835475.9,286046995.3,N
1583835495.7,286046994.9,N
1583835515.5,286046996.8,N
1583835535.4,286046998.2,N
1583835555.2,286046998.1,N
1583835575.1,286046999.3,N
1583835576.0,286046999.3,N
1583835595.8,286046998.0,N
1583835615.6,286046997.9,N
1583835635.5,286046997.7,N
1583835655.3,286046997.6,N
1583835675.2,286046995.6,Y
1583835695.9,286046997.9,P
1583835715.1,286046997.6,P
1583835716.0,286046997.6,P
1583835735.8,286046997.7,Y
1583835755.7,286046998.4,P
1583835775.5,286046998.7,P
1583835795.3,286047001.2,N
1583835815.2,286046998.5,N
1583835835.0,286047000.7,N
1583835835.9,286047000.7,N
1583835855.8,286046998.2,N
1583835875.6,286047000.5,N
1583835895.4,286046998.5,N
1583835915.3,286047002.8,N
1583835935.1,286047001.1,N
1583835955.9,286047000.9,N
1583835975.7,286047000.8,N
1583835995.5,286046998.4,N
1583836015.4,286046999.1,N
1583836035.2,286046999.5,N
1583836055.0,286046999.0,N
1583836056.0,286046999.0,N
1583836075.8,286046998.5,N
1583836095.6,286046998.7,N
1583836115.5,286046999.3,N
1583836135.3,286046996.6,N
1583836155.1,286046996.8,N
1583836175.9,286046997.1,N
1583836195.7,286046997.4,N
1583836215.6,286046997.6,N
1583836235.4,286046995.1,Y
1583836255.2,286046994.0,P
1583836275.1,286046994.6,N
1583836276.0,286046994.6,N
1583836295.8,286046993.5,Y
1583836315.7,286046998.9,P
1583836335.5,286046999.1,N
1583836355.3,286046996.6,N
1583836375.2,286046997.0,N
1583836395.0,286046999.6,N
1583836395.9,286046999.6,N
1583836415.8,286046999.0,N
1583836435.6,286046999.6,N
1583836455.4,286046999.0,N
1583836475.3,286047000.8,N
1583836495.1,286046999.1,N
1583836515.8,286046999.1,N
1583836535.7,286047000.9,N
1583836555.5,286046999.1,N
1583836575.4,286046998.5,N
1583836595.2,286046999.3,N
1583836615.0,286046996.9,N
1583836615.9,286046996.9,N
1583836635.8,286046999.0,N
1583836655.6,286046998.3,N
1583836675.5,286047000.6,N
1583836695.3,286046998.1,N
1583836715.1,286047000.8,N
1583836735.9,286046999.9,N
1583836755.7,286046999.7,N
1583836775.5,286047000.3,N
1583836795.4,286046998.5,N
1583836815.2,286047000.5,N
1583836835.1,286046998.9,N
1583836836.0,286046998.9,N
1583836855.8,286047000.8,N
1583836875.6,286046998.5,N
1583836895.5,286046998.5,N
1583836915.3,286046998.2,N
1583836935.2,286047000.7,N
1583836955.9,286047002.6,N
1583836975.7,286047002.4,N
1583836995.6,286047000.5,N
1583837015.4,286047000.9,N
1583837035.3,286047000.8,N
1583837055.1,286047002.8,N
1583837056.0,286047002.8,N
1583837075.8,286047002.8,N
1583837095.7,286047002.2,N
1583837115.5,286047003.8,N
1583837135.4,286047001.4,N
1583837155.2,286047001.9,N
1583837175.0,286047003.3,N
1583837175.9,286047003.3,N
1583837195.8,286047003.7,N
1583837215.6,286047003.5,N
1583837235.4,286047003.2,N
1583837255.3,286047002.1,N
1583837275.1,286047001.6,N
1583837295.9,286047001.8,N
1583837315.7,286047003.6,N
1583837335.5,286047003.1,N
1583837355.4,286047004.3,N
1583837375.2,286047003.6,N
1583837395.1,286047003.6,N
1583837396.0,286047003.6,N
1583837415.8,286047005.9,Y
1583837435.6,286047002.5,P
1583837455.5,286047002.2,P
1583837475.3,286047002.5,P
1583837495.2,286047003.9,Y
1583837515.9,286047001.3,P
1583837535.7,286047004.1,P
1583837555.6,286047001.9,N
1583837575.4,286047002.0,N
1583837595.2,286047000.6,N
1583837615.1,286047000.6,N
1583837616.0,286047000.6,N
1583837635.8,286047000.2,N
1583837655.7,286047002.4,N
1583837675.5,286047000.3,N
1583837695.3,286047000.3,N
1583837715.2,286047002.8,N
1583837735.0,286047000.1,N
1583837735.9,286047000.1,N
1583837755.8,286047004.3,Y
1583837775.6,286047002.4,P
1583837795.4,286046998.2,P
1583837815.3,286047001.0,N
1583837835.1,286047000.2,N
1583837855.9,286047000.8,N
1583837875.7,286047000.8,N
1583837895.5,286047000.4,N
1583837915.4,286047000.9,N
1583837935.2,286047000.3,N
1583837955.0,286046998.5,N
1583837955.9,286046998.5,N
1583837975.8,286047001.2,N
1583837995.6,286046999.9,N
